QPF
0.00 0.00 0.00 0.00 0.00 0.00 0.00 0.00 0.00 0.00 0.00 0.00 0.00 0.00 0.00 0.00 0.00 0.00 0.00 0.00 0.00 0.00
0.00 0.00 0.00 0.00 0.00 0.00 0.00 0.00 0.00 0.00 0.00 0.00 0.00 0.00 0.00 0.00 0.00 0.00 0.00 0.00 0.00 0.00
0.00 0.00 0.00 0.00 0.00 0.00 0.00 0.00 0.00 0.00 0.00 0.00 0.00 0.00 0.00 0.00 0.00 0.00 0.00 0.00 0.00 0.00
0.00 0.00 0.00 0.00 0.00 0.00 0.00 0.00 0.00 0.00 0.00 0.00 0.00 0.00 0.00 0.00 0.00 0.00 0.00 0.00 0.00 0.00
0.00 0.00 0.00 0.00 0.00 0.00 0.00 0.00 0.00 0.00 0.00 0.00 0.00 0.00 0.00 0.00 0.00 0.00 0.00 0.00 0.00 0.00
0.00 0.00 0.00 0.00 0.00 0.00 0.00 0.00 0.00 0.00 0.00 0.00 0.00 0.00 0.00 0.00 0.00 0.00 0.00 0.00 0.00 0.00
0.00 0.00 0.00 0.00 0.00 0.00 0.00 0.00 0.00 0.00 0.00 0.00 0.00 0.00 0.00 0.00 0.00 0.00 0.00 0.00 0.00 0.00
0.00 0.00 0.00 0.00 0.00 0.01 0.00 0.00 0.00 0.01 0.01 0.00 0.00 0.00 0.00 0.00 0.00 0.00 0.00 0.00 0.00 0.00
0.00 0.00 0.00 0.00 0.00 0.01 0.01 0.02 0.01 0.01 0.01 0.00 0.00 0.00 0.00 0.00 0.00 0.00 0.00 0.01 0.03 0.02
0.00 0.00 0.00 0.00 0.00 0.00 0.01 0.03 0.02 0.01 0.01 0.00 0.00 0.00 0.00 0.00 0.00 0.00 0.01 0.02 0.03 0.02
0.00 0.00 0.00 0.00 0.00 0.00 0.00 0.03 0.02 0.01 0.01 0.00 0.00 0.01 0.00 0.00 0.00 0.00 0.00 0.00 0.00 0.00
0.00 0.00 0.00 0.00 0.00 0.00 0.00 0.02 0.03 0.01 0.02 0.01 0.01 0.01 0.01 0.00 0.00 0.00 0.00 0.00 0.00 0.00
0.00 0.00 0.00 0.00 0.00 0.00 0.00 0.01 0.02 0.02 0.02 0.04 0.01 0.02 0.01 0.02 0.02 0.01 0.00 0.00 0.00 0.00
0.00 0.00 0.00 0.00 0.00 0.00 0.01 0.00 0.00 0.01 0.01 0.02 0.03 0.06 0.02 0.02 0.02 0.01 0.01 0.00 0.00 0.00
MSLP
1010.93 1011.25 1011.38 1011.52 1011.40 1011.88 1011.90 1012.44 1013.47 1014.46 1015.09 1015.47 1015.87 1016.06 1016.20 1016.73 1016.97 1017.09 1017.21 1017.35 1017.32 1017.00
1010.03 1010.43 1010.30 1010.80 1011.39 1011.57 1011.85 1012.05 1013.21 1014.18 1014.49 1014.68 1015.58 1015.99 1016.51 1016.66 1016.63 1017.08 1017.16 1017.13 1017.20 1017.25
1008.96 1009.58 1010.00 1010.25 1010.67 1011.15 1011.54 1012.14 1012.85 1013.40 1013.42 1014.31 1013.74 1014.32 1015.53 1016.15 1016.41 1016.64 1016.76 1016.64 1016.55 1016.95
1007.84 1008.66 1009.43 1009.63 1010.15 1010.76 1011.22 1011.97 1012.42 1013.00 1013.29 1013.65 1014.15 1014.18 1015.19 1014.82 1015.47 1015.97 1016.45 1016.69 1016.67 1016.80
1006.91 1007.59 1008.20 1008.77 1009.27 1010.04 1010.69 1011.35 1011.76 1012.46 1012.98 1013.29 1013.61 1014.00 1014.56 1015.13 1015.09 1015.56 1015.87 1016.22 1016.59 1016.62
1005.86 1006.46 1006.99 1007.69 1008.43 1009.18 1009.95 1010.63 1011.24 1011.72 1012.30 1012.81 1013.25 1013.57 1014.11 1014.29 1014.85 1015.15 1015.50 1015.68 1015.95 1016.15
1004.84 1005.44 1006.18 1006.86 1007.71 1008.43 1009.32 1009.83 1010.37 1010.93 1011.72 1012.38 1012.85 1013.15 1013.60 1013.82 1014.31 1014.67 1014.87 1015.21 1015.54 1015.72
1003.91 1004.82 1005.72 1006.63 1007.29 1008.19 1008.95 1009.68 1010.13 1010.64 1011.54 1011.99 1012.29 1012.51 1012.93 1013.40 1013.63 1014.20 1014.44 1014.76 1014.84 1015.23
1003.13 1004.25 1005.22 1006.13 1006.71 1007.84 1009.00 1009.71 1010.07 1010.45 1011.04 1011.47 1011.56 1011.77 1012.34 1012.59 1013.14 1013.57 1013.93 1014.21 1014.32 1014.67
1002.67 1003.86 1004.92 1005.74 1006.34 1006.95 1007.83 1008.36 1008.64 1009.34 1010.05 1010.69 1011.17 1011.50 1011.82 1012.21 1012.60 1012.69 1013.07 1013.71 1013.98 1014.52
1002.36 1003.55 1004.67 1005.22 1005.65 1006.31 1007.03 1007.79 1008.63 1008.87 1009.71 1010.21 1010.77 1011.27 1011.54 1011.88 1012.43 1012.50 1012.64 1012.91 1013.52 1014.03
1001.99 1003.01 1003.98 1004.66 1005.04 1005.79 1006.66 1007.57 1008.32 1008.84 1009.40 1009.85 1010.24 1010.87 1011.34 1011.85 1011.88 1012.00 1012.25 1012.74 1013.43 1013.79
1001.70 1002.74 1003.48 1004.36 1005.06 1005.66 1006.42 1007.32 1008.11 1008.50 1008.88 1009.58 1010.06 1010.22 1010.71 1011.28 1011.32 1011.26 1011.49 1012.01 1012.77 1013.43
1001.73 1002.63 1003.38 1004.17 1004.85 1005.44 1006.22 1006.92 1007.85 1008.28 1008.52 1009.18 1009.63 1009.75 1010.39 1010.77 1010.88 1010.79 1011.02 1011.44 1012.20 1012.49
Thickness
5808 5805 5805 5805 5806 5801 5800 5795 5786 5775 5765 5759 5753 5749 5746 5740 5736 5734 5731 5726 5725 5726
5812 5810 5812 5810 5806 5802 5800 5798 5786 5773 5768 5762 5748 5739 5733 5731 5730 5727 5725 5724 5722 5719
5819 5817 5815 5814 5808 5804 5800 5793 5784 5777 5771 5757 5756 5747 5733 5726 5724 5722 5722 5723 5722 5716
5825 5821 5816 5814 5809 5803 5799 5790 5784 5774 5768 5759 5751 5747 5732 5730 5724 5721 5716 5713 5712 5710
5831 5827 5820 5816 5813 5806 5797 5790 5784 5775 5767 5760 5755 5747 5737 5725 5724 5719 5713 5710 5705 5703
5835 5830 5826 5821 5816 5809 5799 5791 5783 5777 5768 5759 5752 5747 5737 5731 5723 5717 5711 5708 5704 5700
5837 5832 5827 5824 5817 5809 5800 5793 5785 5778 5767 5758 5752 5746 5738 5731 5722 5716 5712 5706 5700 5697
5841 5834 5827 5819 5814 5805 5797 5787 5781 5774 5762 5756 5749 5745 5736 5729 5723 5715 5708 5703 5701 5694
5843 5833 5824 5816 5811 5800 5787 5780 5775 5768 5759 5752 5749 5744 5736 5731 5722 5716 5706 5698 5697 5692
5840 5829 5820 5814 5808 5800 5789 5783 5778 5768 5760 5749 5744 5737 5732 5725 5720 5717 5708 5698 5691 5684
5835 5824 5815 5811 5806 5798 5790 5781 5767 5763 5754 5746 5739 5730 5725 5719 5713 5709 5704 5699 5690 5682
5832 5823 5815 5807 5804 5797 5786 5774 5764 5756 5748 5740 5734 5724 5717 5709 5706 5702 5696 5689 5680 5675
5829 5818 5810 5803 5796 5790 5780 5768 5759 5748 5743 5733 5725 5719 5711 5703 5700 5695 5691 5685 5676 5666
5819 5811 5805 5797 5790 5782 5772 5762 5749 5740 5735 5725 5718 5715 5704 5696 5694 5690 5685 5678 5668 5664